Heute – Wetterdaten der letzten 3 Stunden im 5 Min. Intervall

Wetterdaten der letzten 3 Stunden im 5 Min. Intervall
DatumAussentemperaturLuftdruckLuftfeuchtigkeitWindstärke Regen
10.12.19, 14:40 6.5 °C 1022.4 hPa 74 % 3.2 km/h 0.0 mm
10.12.19, 14:35 6.7 °C 1022.5 hPa 75 % 0.0 km/h 0.0 mm
10.12.19, 14:30 6.9 °C 1022.6 hPa 75 % 8.6 km/h 0.0 mm
10.12.19, 14:25 6.9 °C 1022.8 hPa 75 % 3.2 km/h 0.0 mm
10.12.19, 14:20 6.9 °C 1023.1 hPa 75 % 0.0 km/h 0.0 mm
10.12.19, 14:15 6.9 °C 1023.1 hPa 75 % 3.2 km/h 0.0 mm
10.12.19, 14:10 6.9 °C 1023.2 hPa 75 % 5.0 km/h 0.0 mm
10.12.19, 14:05 6.9 °C 1023.2 hPa 75 % 1.8 km/h 0.0 mm
10.12.19, 13:55 6.9 °C 1023.4 hPa 76 % 5.0 km/h 0.0 mm
10.12.19, 13:50 6.8 °C 1023.4 hPa 77 % 0.0 km/h 0.0 mm
10.12.19, 13:45 6.7 °C 1023.5 hPa 76 % 1.8 km/h 0.0 mm
10.12.19, 13:40 6.7 °C 1023.6 hPa 77 % 3.2 km/h 0.0 mm
10.12.19, 13:35 6.7 °C 1023.8 hPa 77 % 1.8 km/h 0.0 mm
10.12.19, 13:30 6.6 °C 1024.0 hPa 78 % 0.0 km/h 0.0 mm
10.12.19, 13:25 6.5 °C 1023.9 hPa 78 % 5.0 km/h 0.0 mm
10.12.19, 13:20 6.4 °C 1024.0 hPa 79 % 6.8 km/h 0.0 mm
10.12.19, 13:15 6.3 °C 1024.2 hPa 79 % 1.8 km/h 0.0 mm
10.12.19, 13:10 6.3 °C 1024.3 hPa 80 % 6.8 km/h 0.0 mm
10.12.19, 13:05 6.2 °C 1024.3 hPa 81 % 0.0 km/h 0.0 mm
10.12.19, 12:55 6.1 °C 1024.5 hPa 82 % 5.0 km/h 0.0 mm
10.12.19, 12:50 6.1 °C 1024.7 hPa 82 % 1.8 km/h 0.0 mm
10.12.19, 12:45 6.0 °C 1024.8 hPa 83 % 1.8 km/h 0.0 mm
10.12.19, 12:40 5.8 °C 1024.7 hPa 83 % 3.2 km/h 0.0 mm
10.12.19, 12:35 5.8 °C 1024.6 hPa 83 % 3.2 km/h 0.0 mm
10.12.19, 12:30 5.7 °C 1024.8 hPa 85 % 3.2 km/h 0.0 mm
10.12.19, 12:25 5.6 °C 1024.9 hPa 85 % 1.8 km/h 0.0 mm
10.12.19, 12:20 5.4 °C 1024.9 hPa 86 % 6.8 km/h 0.0 mm
10.12.19, 12:15 5.2 °C 1025.1 hPa 86 % 0.0 km/h 0.0 mm
10.12.19, 12:10 5.1 °C 1025.2 hPa 87 % 6.8 km/h 0.0 mm
10.12.19, 12:05 5.1 °C 1025.3 hPa 88 % 6.8 km/h 0.0 mm
10.12.19, 11:55 4.7 °C 1025.6 hPa 89 % 1.8 km/h 0.0 mm
10.12.19, 11:50 4.4 °C 1025.7 hPa 89 % 0.0 km/h 0.0 mm
10.12.19, 11:45 4.3 °C 1025.8 hPa 89 % 1.8 km/h 0.0 mm